(246896) = 1997 SV9 = 2006 SP167

Discovered at Kitt Peak on 1997-09-28 by Spacewatch.

Orbit

Orbit type: Main Belt

Note: WebGL enabled browser required.

epoch2023-02-25.0
epoch JD2460000.5
perihelion date2021-01-26.90146
perihelion JD2459241.40146
argument of perihelion (°)84.99152
ascending node (°)329.79725
inclination (°)4.56512
eccentricity0.0415545
perihelion distance (AU)2.6430011
Tisserand w.r.t. Jupiter3.3
ΔV w.r.t. Earth (km/sec)10.2
semimajor axis (AU)2.7575916
mean anomaly (°)163.38308
mean daily motion (°/day)0.21523300
aphelion distance (AU)2.872
period (years)4.58
P-vector [x]0.57500252
P-vector [y]0.71556719
P-vector [z]0.39665564
Q-vector [x]-0.81717129
Q-vector [y]0.52602954
Q-vector [z]0.23563531
absolute magnitude16.5
phase slope0.15
uncertainty0
referenceMPO 745323
observations used345
oppositions17
arc length (days)9395
first opposition used1997
last opposition used2023
residual rms (arc-secs)0.83
perturbers coarse indicatorM-v
perturbers precise indicator003Ek
first observation date used1997-09-28.0
last observation date used2023-06-19.0
computer nameMPCLINUX
JD of orbit computation2456847.605283
perihelion JD uncertainty (days)3.0949E-04
argument of perihelion uncertainty (°)9.0865E-05
ascending node uncertainty (°)6.1569E-05
inclination uncertainty (°)4.6815E-06
eccentricity uncertainty 4.7217E-08
perihelion distance uncertainty (AU)1.2687E-07
Minimum Orbit Intersection Distances (in AU)
for orbit epoch: 2460000.5, reference: E2023-M63
Mercury2.32695
Venus1.92594
Earth1.65723
Mars1.07098
Jupiter2.26931
Saturn6.40406
Uranus15.641
Neptune27.1999

Observations

351 total observations over interval: 1997 09 28.40475 – 2023 06 19.314859
These data are available for download (format description).

Date (UT) J2000 RA J2000 Dec Magn Location Ref
1997 09 28.40475 01 25 21.42 +14 40 10.3 20.3 V 691 – Steward Observatory, Kitt Peak-Spacewatch MPS 33
1997 09 28.42648 01 25 20.37 +14 40 07.2 20.3 V 691 – Steward Observatory, Kitt Peak-Spacewatch MPS 33
1997 09 28.44825 01 25 19.34 +14 40 04.1 20.0 V 691 – Steward Observatory, Kitt Peak-Spacewatch MPS 33
1997 09 29.40227 01 24 34.73 +14 37 43.6 20.4 V 691 – Steward Observatory, Kitt Peak-Spacewatch MPS 33
1997 09 29.40781 01 24 34.41 +14 37 42.5 20.9 V 691 – Steward Observatory, Kitt Peak-Spacewatch MPS 33
1997 09 29.41561 01 24 34.03 +14 37 41.3 20.8 V 691 – Steward Observatory, Kitt Peak-Spacewatch MPS 33
1997 09 30.30502 01 23 51.84 +14 35 23.6 20.5 V 691 – Steward Observatory, Kitt Peak-Spacewatch MPS 33
1997 09 30.32666 01 23 50.75 +14 35 20.2 20.3 V 691 – Steward Observatory, Kitt Peak-Spacewatch MPS 33
1997 09 30.34811 01 23 49.68 +14 35 16.5 20.3 V 691 – Steward Observatory, Kitt Peak-Spacewatch MPS 33
1997 10 05.31244 01 19 42.49 +14 20 32.2 19.9 V 691 – Steward Observatory, Kitt Peak-Spacewatch MPS 33
1997 10 05.33415 01 19 41.32 +14 20 27.8 20.1 V 691 – Steward Observatory, Kitt Peak-Spacewatch MPS 33
1997 10 05.35562 01 19 40.18 +14 20 22.6 19.8 V 691 – Steward Observatory, Kitt Peak-Spacewatch MPS 33
2002 12 06.30697 04 15 50.73 +28 33 44.5 19.6   704 – Lincoln Laboratory ETS, New Mexico MPS 182393
2002 12 06.32241 04 15 49.71 +28 33 42.3 19.7   704 – Lincoln Laboratory ETS, New Mexico MPS 182393
2002 12 06.33796 04 15 48.84 +28 33 40.3 19.9   704 – Lincoln Laboratory ETS, New Mexico MPS 182393
2002 12 06.35332 04 15 47.82 +28 33 36.4 19.5   704 – Lincoln Laboratory ETS, New Mexico MPS 182393
2004 03 30.23330 11 12 43.58 +01 49 10.1 20.9 V 691 – Steward Observatory, Kitt Peak-Spacewatch MPS 182393
2004 03 30.26775 11 12 42.04 +01 49 17.7 20.3 V 691 – Steward Observatory, Kitt Peak-Spacewatch MPS 182393
2004 03 30.29824 11 12 40.70 +01 49 24.5 20.7 V 691 – Steward Observatory, Kitt Peak-Spacewatch MPS 182393
2006 09 25.16025 00 10 20.33 +05 29 56.1 20.9 V 691 – Steward Observatory, Kitt Peak-Spacewatch MPS 181397
2006 09 25.17760 00 10 19.46 +05 29 52.1 20.7 V 691 – Steward Observatory, Kitt Peak-Spacewatch MPS 181397
2006 09 25.19494 00 10 18.53 +05 29 48.2 20.4 V 691 – Steward Observatory, Kitt Peak-Spacewatch MPS 181397
2006 09 27.16858 00 08 36.61 +05 21 57.4 20.0 V 691 – Steward Observatory, Kitt Peak-Spacewatch MPS 181397
2006 09 27.18589 00 08 35.69 +05 21 53.0 20.0 V 691 – Steward Observatory, Kitt Peak-Spacewatch MPS 181397
2006 09 27.20326 00 08 34.77 +05 21 48.9 19.9 V 691 – Steward Observatory, Kitt Peak-Spacewatch MPS 181397
2006 10 01.17155 00 05 11.18 +05 05 35.2   691 – Steward Observatory, Kitt Peak-Spacewatch MPS 182397
2006 10 01.18885 00 05 10.26 +05 05 30.8   691 – Steward Observatory, Kitt Peak-Spacewatch MPS 182397
2006 10 01.20616 00 05 09.36 +05 05 26.3   691 – Steward Observatory, Kitt Peak-Spacewatch MPS 182397
2006 10 23.19284 23 49 22.62 +03 40 22.7 20.1 V G96 – Mt. Lemmon Survey MPS 183844
2006 10 23.19942 23 49 22.44 +03 40 21.7 20.1 V G96 – Mt. Lemmon Survey MPS 183844
2006 10 23.20618 23 49 22.18 +03 40 20.4 20.1 V G96 – Mt. Lemmon Survey MPS 183844
2006 10 23.21276 23 49 21.97 +03 40 19.1 20.1 V G96 – Mt. Lemmon Survey MPS 183844
2007 11 03.44934 08 09 26.71 +24 26 12.7 21.2 V G96 – Mt. Lemmon Survey MPS 224549
2007 11 03.45653 08 09 27.00 +24 26 11.9 22.1 V G96 – Mt. Lemmon Survey MPS 224549
2007 11 03.46369 08 09 27.21 +24 26 11.2 21.7 V G96 – Mt. Lemmon Survey MPS 224549
2007 11 03.47090 08 09 27.54 +24 26 10.5 21.1 V G96 – Mt. Lemmon Survey MPS 224549
2007 11 11.37451 08 14 02.83 +24 17 31.8 21.1 V G96 – Mt. Lemmon Survey MPS 226659
2007 11 11.38280 08 14 03.04 +24 17 31.4 20.8 V G96 – Mt. Lemmon Survey MPS 226659
2007 11 11.39108 08 14 03.30 +24 17 30.8 21.1 V G96 – Mt. Lemmon Survey MPS 226659
2007 11 11.39932 08 14 03.51 +24 17 31.2 21.1 V G96 – Mt. Lemmon Survey MPS 226659
2007 11 18.43884 08 16 48.39 +24 13 25.7 20.8 V G96 – Mt. Lemmon Survey MPS 228163
2007 11 18.44559 08 16 48.50 +24 13 25.5 20.5 V G96 – Mt. Lemmon Survey MPS 228163
2007 11 18.45228 08 16 48.61 +24 13 25.3 20.6 V G96 – Mt. Lemmon Survey MPS 228163
2007 11 18.45904 08 16 48.72 +24 13 25.6 20.9 V G96 – Mt. Lemmon Survey MPS 228163
2007 12 18.34549 08 12 42.76 +24 36 24.0 20.8 V G96 – Mt. Lemmon Survey MPS 231693
2007 12 18.35007 08 12 42.58 +24 36 24.4 20.6 V G96 – Mt. Lemmon Survey MPS 231693
2007 12 18.35449 08 12 42.44 +24 36 24.8 20.8 V G96 – Mt. Lemmon Survey MPS 231693
2007 12 18.35889 08 12 42.30 +24 36 25.0 20.9 V G96 – Mt. Lemmon Survey MPS 231693
2008 01 15.19307 07 48 39.88 +25 23 08.9 20.0 V G96 – Mt. Lemmon Survey MPS 234093
2008 01 15.19940 07 48 39.49 +25 23 09.3 20.1 V G96 – Mt. Lemmon Survey MPS 234093
2008 01 15.20568 07 48 39.09 +25 23 09.6 19.9 V G96 – Mt. Lemmon Survey MPS 234093
2008 01 15.21213 07 48 38.66 +25 23 10.2 20.0 V G96 – Mt. Lemmon Survey MPS 234093
2008 01 16.15846 07 47 40.46 +25 24 14.3 20.0 V 691 – Steward Observatory, Kitt Peak-Spacewatch MPS 234093
2008 01 16.17658 07 47 39.36 +25 24 15.9 19.9 V 691 – Steward Observatory, Kitt Peak-Spacewatch MPS 234093
2008 01 16.19496 07 47 38.13 +25 24 18.2 19.5 V 691 – Steward Observatory, Kitt Peak-Spacewatch MPS 234093
2008 03 12.14882 07 18 52.74 +24 31 00.9 20.6 V G96 – Mt. Lemmon Survey MPS 241944
2008 03 12.15425 07 18 52.81 +24 31 00.4 20.9 V G96 – Mt. Lemmon Survey MPS 241944
2008 03 12.15973 07 18 52.88 +24 30 59.6 20.5 V G96 – Mt. Lemmon Survey MPS 241944
2008 03 12.16523 07 18 52.95 +24 30 58.6 20.4 V G96 – Mt. Lemmon Survey MPS 241944
2009 04 24.26802 13 46 28.56 -17 38 26.0 20.7 V G96 – Mt. Lemmon Survey MPS 284205
2009 04 24.27488 13 46 28.20 -17 38 24.1 20.4 V G96 – Mt. Lemmon Survey MPS 284205
2009 04 24.28168 13 46 27.80 -17 38 22.4 20.5 V G96 – Mt. Lemmon Survey MPS 284205
2009 04 24.28847 13 46 27.48 -17 38 21.0 20.8 V G96 – Mt. Lemmon Survey MPS 284205
2010 04 25.92743 20 38 08.38 -22 02 29.6   C51 – WISE MPS 341597
2010 04 26.456646 20 38 37.06 -22 00 56.3   C51 – WISE MPS 341597
2010 04 26.522734 20 38 40.66 -22 00 44.9   C51 – WISE MPS 341597
2010 04 26.522861 20 38 40.721 -22 00 45.18   C51 – WISE MPS 903737
2010 04 26.588950 20 38 44.21 -22 00 32.3   C51 – WISE MPS 341597
2010 04 26.655166 20 38 47.79 -22 00 21.6   C51 – WISE MPS 341597
2010 04 26.78747 20 38 54.90 -21 59 56.1   C51 – WISE MPS 341597
2010 04 26.91977 20 39 01.85 -21 59 34.0   C51 – WISE MPS 341597
2010 07 06.38553 20 49 05.30 -21 24 28.5 20.7 V G96 – Mt. Lemmon Survey MPS 337250
2010 07 06.39212 20 49 05.05 -21 24 29.6 21.0 V G96 – Mt. Lemmon Survey MPS 337251
2010 07 06.39872 20 49 04.72 -21 24 30.0 20.1 V G96 – Mt. Lemmon Survey MPS 337251
2010 07 06.40520 20 49 04.47 -21 24 31.1 20.6 V G96 – Mt. Lemmon Survey MPS 337251
2010 08 18.335245 20 12 14.887 -22 32 20.38 20.30 i F51 – Pan-STARRS 1, Haleakala MPS 365302
2010 08 18.348397 20 12 14.301 -22 32 20.63 20.47 r F51 – Pan-STARRS 1, Haleakala MPS 365302
2010 08 18.359432 20 12 13.787 -22 32 20.72 20.31 r F51 – Pan-STARRS 1, Haleakala MPS 365302
2011 09 30.44787 03 36 22.53 +25 31 09.4 20.2 V G96 – Mt. Lemmon Survey MPS 394111
2011 09 30.45306 03 36 22.50 +25 31 09.9 20.2 V G96 – Mt. Lemmon Survey MPS 394111
2011 09 30.46044 03 36 22.42 +25 31 11.2 20.6 V G96 – Mt. Lemmon Survey MPS 394111
2011 09 30.46571 03 36 22.35 +25 31 11.6 20.3 V G96 – Mt. Lemmon Survey MPS 394111
2011 10 17.41605 03 30 04.61 +25 49 48.4 20.5 V 691 – Steward Observatory, Kitt Peak-Spacewatch MPS 396126
2011 10 17.43383 03 30 03.95 +25 49 48.2 20.6 V 691 – Steward Observatory, Kitt Peak-Spacewatch MPS 396126
2011 10 17.45163 03 30 03.29 +25 49 48.4 20.5 V 691 – Steward Observatory, Kitt Peak-Spacewatch MPS 396126
2011 10 21.30101 03 27 32.73 +25 48 56.5 20.6 V 691 – Steward Observatory, Kitt Peak-Spacewatch MPS 396126
2011 10 21.31880 03 27 31.99 +25 48 56.2 20.6 V 691 – Steward Observatory, Kitt Peak-Spacewatch MPS 396126
2011 10 21.33659 03 27 31.20 +25 48 55.9 20.4 V 691 – Steward Observatory, Kitt Peak-Spacewatch MPS 396126
2011 10 26.99956 03 23 12.33 +25 43 49.0 21.8 R 152 – Moletai Astronomical Observatory MPS 428899
2011 10 27.02178 03 23 11.07 +25 43 46.7 21.0 R 152 – Moletai Astronomical Observatory MPS 428899
